Starlink 31451

operational
NORAD ID: 59366 Int'l Des: 2024-060 Owner: SPXS Country: US Constellation: starlink
LEOCIRCULAR

About Starlink 31451

Description loading...

Live Position

Loading 3D Globe...

Upcoming Passes

Altitude History

Altitude vs Time

uPlot chart will show altitude changes over time

Two-Line Element Set

1 59366U 24060U 25304.59663931 -.00001843 00000-0 -57447-4 0 9996
2 59366 43.0024 268.5673 0000614 325.1003 34.9808 15.27589734 90323
Epoch: Oct 31, 2025 • Age: 27 hours

Current Status

Altitude 486.3 km
Velocity 7.63 km/s
Sub-Earth Point 42.71°N, 59.78°E
Launch Date Mar 31, 2024
Age 1.5 years
Type internet

Technical Details

Classification Payload
Mass 730.00 kg
Dry Mass 700.00 kg
Total Mass 730.00 kg
Length 0.30 m
Diameter 4.10 m
Span 29.00 m
Shape Box + pan
Manufacturer SPXS
Bus Type Starlink V2M
Phase Status In Orbit
Owner/State SPXS/US

Large Constellations

Loading constellations...